[[{"header":{"parameterUnit":"m.s-1","parameterCategory":1,"la1":30.2991,"la2":30.254,"lo1":-89.0895,"lo2":-89.0444,"dy":0.0017,"dx":0.0017,"nx":28,"ny":28,"refTime":"2024-06-08T21:00:00:Z","depth":0,"parameterNumber":2,"parameterNumberName":"U-component_of_WINDS"},"data":[0,0,0,0,0,0,0,0,0,0,0,0,0,0,0,0,0,0,0,0,0,0,0,0,0,0,0,0,0,0,0,0,0,0,0,0,0,0,0,0,0,0,0,0,0,0,0,0,0,0,0,0,0,0,0,0,0,0,-3.1003,-3.1003,0,-3.0999,-3.0999,-3.0999,-3.0928,-3.0926,-3.0924,-3.0922,-3.0919,-3.092,-3.0922,0,0,0,0,0,0,0,0,0,0,0,0,0,-3.0952,-3.0953,-3.1003,-3.1003,-3.1003,-3.0999,-3.0999,-3.0999,-3.0928,-3.0926,-3.0924,-3.0922,-3.0918,-3.092,-3.0922,0,0,0,0,0,0,0,0,0,0,0,0,0,-3.0964,-3.0954,-3.1003,-3.0967,-3.0964,-3.0999,-3.0999,-3.0999,-3.0929,-3.0926,-3.0923,-3.0921,-3.0918,-3.092,-3.0922,-3.0992,0,0,-3.093,-3.0931,0,0,0,0,0,0,0,0,-3.0963,-3.0966,-3.0973,-3.097,-3.0966,-3.0961,-3.098,-3.0997,-3.0929,-3.0942,-3.0922,-3.0919,-3.0935,-3.0936,-3.0941,-3.0992,-3.0991,-3.093,-3.0931,-3.0932,-3.0933,0,0,0,0,0,0,0,-3.0962,-3.0966,-3.1002,-3.0973,-3.0969,-3.0952,-3.0951,-3.0982,-3.0954,-3.0941,-3.0936,-3.0936,-3.0933,-3.0939,-3.0941,-3.0991,-3.093,-3.0932,-3.0934,-3.0934,-3.1102,-3.1104,0,0,0,0,0,0,-3.0966,-3.0965,-3.1002,-3.1002,-3.0958,-3.0955,-3.0954,-3.0966,-3.0953,-3.0949,-3.0938,-3.0933,-3.0936,-3.0938,-3.094,-3.1023,-3.0932,-3.0935,-3.0936,-3.1099,-3.1102,-3.1105,0,0,0,0,0,0,-3.0966,-3.097,-3.1002,-3.0982,-3.0985,-3.0959,-3.0973,-3.0967,-3.0973,-3.0952,-3.0946,-3.095,-3.0934,-3.0937,-3.098,-3.1022,-3.0936,-3.0938,-3.1095,-3.11,-3.1104,-3.1188,0,0,0,0,0,0,-3.0964,-3.097,-3.0996,-3.0983,-3.0986,-3.1042,-3.0975,-3.0969,-3.0977,-3.097,-3.0961,-3.0957,-3.0932,-3.0977,-3.0983,-3.1024,-3.094,-3.1091,-3.1097,-3.1102,-3.1181,-3.1195,-3.1206,0,0,0,0,0,-3.0963,-3.1019,-3.0998,-3.1003,-3.1018,-3.1044,-3.1046,-3.1016,-3.0981,-3.1007,-3.0994,-3.0957,-3.1016,-3.0982,-3.0988,-3.103,-3.1088,-3.1095,-3.1102,-3.1176,-3.1192,-3.1206,0,0,0,0,0,0,-3.1038,-3.1017,-3.0993,-3.1047,-3.1048,-3.1032,-3.1064,-3.1034,-3.1045,-3.1038,-3.1001,-3.0999,-3.1049,-3.1043,-3.1006,-3.1098,-3.1046,-3.1054,-3.11,-3.1116,-3.1128,-3.1129,-3.0942,0,0,0,0,0,-3.1061,-3.1083,-3.1064,-3.1114,-3.1116,-3.109,-3.11,-3.1078,-3.1077,-3.1077,-3.1067,-3.1069,-3.1087,-3.1101,-3.1117,-3.1179,-3.1178,-3.1212,-3.1224,-3.1234,-3.1243,-3.1278,-3.1294,-3.1128,-3.1128,-3.1127,0,0,-3.1108,-3.1099,-3.1116,-3.1129,-3.1127,-3.1153,-3.1091,-3.112,-3.1139,-3.1082,-3.1123,-3.1115,-3.1115,-3.1169,-3.1192,-3.1166,-3.1288,-3.1243,-3.1251,-3.1254,-3.1287,-3.1303,-3.1317,-3.1132,-3.1131,-3.1131,0,0,-3.1208,-3.1203,-3.1245,-3.1245,-3.1243,-3.1226,-3.1236,-3.1225,-3.1218,-3.1259,-3.1217,-3.1239,-3.1272,-3.1274,-3.1279,-3.1382,-3.135,-3.1388,-3.1454,-3.1489,-3.1502,-3.1514,-3.1553,-3.1568,-3.1396,-3.1396,-3.1396,0,-3.1267,-3.1304,-3.127,-3.1303,-3.1311,-3.126,-3.1304,-3.1305,-3.1309,-3.1316,-3.1285,-3.1327,-3.1323,-3.1378,-3.1404,-3.1409,-3.1421,-3.139,-3.1503,-3.1514,-3.1525,-3.1562,-3.1576,-3.1401,-3.1401,-3.14,-3.14,0,-3.1378,-3.1405,-3.1439,-3.1445,-3.1456,-3.1494,-3.1467,-3.1482,-3.1459,-3.1445,-3.1489,-3.1482,-3.1497,-3.1508,-3.1484,-3.1561,-3.1545,-3.1509,-3.1457,-3.1546,-3.158,-3.1594,-3.1408,-3.1406,-3.1405,-3.1404,0,0,-3.1526,-3.1513,-3.1527,-3.153,-3.1525,-3.1545,-3.1581,-3.1596,-3.1611,-3.1616,-3.1647,-3.1676,-3.1644,-3.1651,-3.1627,-3.1658,-3.1743,-3.1619,-3.1618,-3.1645,-3.183,-3.1859,-3.1876,-3.1721,-3.1724,-3.1726,-3.1831,0,-3.1625,-3.1686,-3.1658,-3.1723,-3.1748,-3.1701,-3.1733,-3.1734,-3.1722,-3.1743,-3.1729,-3.1752,-3.1707,-3.1711,-3.1739,-3.1727,-3.1781,-3.1719,-3.1752,-3.1753,-3.1756,-3.1893,-3.1923,-3.2023,-3.1844,-3.1846,-3.1848,0,-3.1748,-3.1759,-3.1827,-3.182,-3.1829,-3.1858,-3.1871,-3.189,-3.1891,-3.1881,-3.1889,-3.1859,-3.1895,-3.1842,-3.1893,-3.1851,-3.1863,-3.186,-3.1863,-3.1867,-3.1808,-3.1904,-3.2054,-3.207,-3.1868,-3.1867,-3.1865,0,-3.1853,-3.1884,-3.1929,-3.1933,-3.1924,-3.1947,-3.1944,-3.1942,-3.1954,-3.1965,-3.1972,-3.1987,-3.1996,-3.2009,-3.1985,-3.1948,-3.204,-3.1984,-3.2035,-3.2036,-3.2058,-3.2058,-3.2215,-3.2062,-3.2061,-3.2061,-3.2061,0,-3.1968,-3.2012,-3.1976,-3.2005,-3.2053,-3.202,-3.207,-3.2062,-3.2061,-3.2088,-3.2047,-3.2073,-3.2038,-3.2062,-3.2042,-3.2089,-3.2093,-3.2087,-3.2082,-3.2092,-3.2094,-3.2101,-3.2095,-3.2065,-3.2064,-3.2063,-3.2063,0,-3.2094,-3.2071,-3.2118,-3.2107,-3.2105,-3.2142,-3.2132,-3.2159,-3.2144,-3.2179,-3.2185,-3.2163,-3.2189,-3.2165,-3.2189,-3.2177,-3.224,-3.2223,-3.224,-3.2237,-3.229,-3.2287,-3.246,-3.2483,-3.2312,-3.2314,-3.2315,0,-3.217,-3.2203,-3.2195,-3.2211,-3.2211,-3.2235,-3.2248,-3.2216,-3.2231,-3.2235,-3.2262,-3.2284,-3.23,-3.2343,-3.233,-3.2349,-3.2334,-3.2394,-3.2337,-3.2347,-3.2339,-3.2338,-3.2343,-3.2406,-3.2408,-3.241,-3.2411,0,-3.2308,-3.2296,-3.2315,-3.2331,-3.2346,-3.2357,-3.2364,-3.2379,-3.2347,-3.2366,-3.2392,-3.2404,-3.243,-3.2453,-3.2468,-3.2466,-3.2435,-3.2429,-3.2442,-3.2454,-3.2464,-3.2463,-3.2275,-3.2425,-3.2424,-3.2423,-3.2422,-3.2422,-3.2413,-3.2442,-3.2442,-3.2465,-3.2467,-3.2476,-3.2501,-3.249,-3.2511,-3.2529,-3.2509,-3.2542,-3.2544,-3.256,-3.2563,-3.2588,-3.2563,-3.2582,-3.2587,-3.2593,-3.2602,-3.2458,-3.259,-3.259,-3.2589,-3.2589,-3.2589,0,-3.2552,-3.255,-3.2571,-3.2584,-3.2603,-3.257,-3.2578,-3.2596,-3.2625,-3.2629,-3.2646,-3.2677,-3.27,-3.2689,-3.2709,-3.2732,-3.2718,-3.2739,-3.2738,-3.2739,-3.2622,-3.261,-3.275,-3.275,-3.275,-3.2749,-3.2749,-3.2749,-3.2627,-3.2674,-3.2662,-3.2711,-3.2708,-3.274,-3.2747,-3.2756,-3.2759,-3.2796,-3.2815,-3.2807,-3.2806,-3.2826,-3.2846,-3.2842,-3.2853,-3.288,-3.2871,-3.2762,-3.2747,-3.2732,-3.272,-3.2881,-3.2881,-3.2986,-3.2987,-3.2988]},{"header":{"parameterUnit":"m.s-1","parameterCategory":1,"la1":30.2991,"la2":30.254,"lo1":-89.0895,"lo2":-89.0444,"dy":0.0017,"dx":0.0017,"nx":28,"ny":28,"refTime":"2024-06-08T21:00:00:Z","depth":0,"parameterNumber":3,"parameterNumberName":"V-component_of_WINDS"},"data":[0,0,0,0,0,0,0,0,0,0,0,0,0,0,0,0,0,0,0,0,0,0,0,0,0,0,0,0,0,0,0,0,0,0,0,0,0,0,0,0,0,0,0,0,0,0,0,0,0,0,0,0,0,0,0,0,0,0,-0.6226,-0.6225,0,-0.6178,-0.6177,-0.6177,-0.6101,-0.61,-0.6098,-0.6097,-0.6049,-0.6049,-0.6049,0,0,0,0,0,0,0,0,0,0,0,0,0,-0.6252,-0.6252,-0.6226,-0.6225,-0.6225,-0.6178,-0.6177,-0.6177,-0.6101,-0.61,-0.6098,-0.6096,-0.6049,-0.6049,-0.6049,0,0,0,0,0,0,0,0,0,0,0,0,0,-0.6226,-0.6252,-0.6226,-0.6181,-0.6177,-0.6178,-0.6177,-0.6176,-0.6102,-0.61,-0.6097,-0.6096,-0.6049,-0.6049,-0.6049,-0.609,0,0,-0.6049,-0.6049,0,0,0,0,0,0,0,0,-0.6228,-0.6225,-0.6189,-0.6184,-0.6179,-0.6143,-0.6169,-0.6148,-0.6102,-0.613,-0.6097,-0.6095,-0.6082,-0.6079,-0.6075,-0.6088,-0.6086,-0.6049,-0.6049,-0.6049,-0.6049,0,0,0,0,0,0,0,-0.623,-0.6227,-0.6207,-0.6188,-0.6183,-0.6164,-0.6158,-0.6164,-0.6118,-0.6128,-0.6122,-0.6117,-0.6079,-0.6075,-0.6073,-0.6085,-0.6049,-0.6049,-0.6049,-0.6049,-0.6128,-0.613,0,0,0,0,0,0,-0.6238,-0.6229,-0.6208,-0.6205,-0.6199,-0.6165,-0.6158,-0.6157,-0.6118,-0.611,-0.6119,-0.6114,-0.6076,-0.6073,-0.6071,-0.6116,-0.6049,-0.6049,-0.6049,-0.6126,-0.6128,-0.613,0,0,0,0,0,0,-0.6239,-0.6237,-0.621,-0.6216,-0.6211,-0.6167,-0.6166,-0.6157,-0.6153,-0.6112,-0.6103,-0.6123,-0.6074,-0.6071,-0.6085,-0.6113,-0.6049,-0.6049,-0.6123,-0.6126,-0.6129,-0.6206,0,0,0,0,0,0,-0.624,-0.6238,-0.6253,-0.6216,-0.6211,-0.6226,-0.6168,-0.6158,-0.6153,-0.6146,-0.6113,-0.6106,-0.6072,-0.6086,-0.6086,-0.6112,-0.6049,-0.612,-0.6125,-0.6128,-0.6201,-0.6211,-0.6221,0,0,0,0,0,-0.6241,-0.6277,-0.6254,-0.6252,-0.6229,-0.6228,-0.6224,-0.6185,-0.6155,-0.617,-0.6143,-0.6107,-0.611,-0.6088,-0.6087,-0.6114,-0.6119,-0.6123,-0.6128,-0.6197,-0.6209,-0.622,0,0,0,0,0,0,-0.6319,-0.6272,-0.6246,-0.6271,-0.6254,-0.6215,-0.6233,-0.62,-0.6191,-0.6185,-0.6136,-0.613,-0.615,-0.6133,-0.611,-0.6151,-0.6109,-0.6113,-0.6161,-0.6173,-0.6183,-0.6186,-0.6049,0,0,0,0,0,-0.6339,-0.6342,-0.63,-0.6327,-0.6319,-0.6278,-0.6275,-0.6246,-0.6227,-0.6219,-0.6193,-0.6176,-0.6173,-0.6172,-0.6167,-0.6198,-0.6189,-0.6215,-0.6225,-0.6233,-0.6238,-0.6252,-0.6263,-0.6146,-0.6146,-0.6146,0,0,-0.6381,-0.6355,-0.636,-0.6341,-0.6325,-0.6328,-0.6272,-0.6279,-0.6281,-0.622,-0.6232,-0.6212,-0.6189,-0.6212,-0.6221,-0.6199,-0.6269,-0.6239,-0.6246,-0.6247,-0.6258,-0.6269,-0.6279,-0.6149,-0.6148,-0.6148,0,0,-0.6459,-0.644,-0.6459,-0.6443,-0.6418,-0.6389,-0.6394,-0.636,-0.6344,-0.6355,-0.6309,-0.6311,-0.6306,-0.6292,-0.6284,-0.6354,-0.6319,-0.6353,-0.6405,-0.6419,-0.6428,-0.6436,-0.646,-0.647,-0.6358,-0.6358,-0.6358,0,-0.6514,-0.6517,-0.6473,-0.6482,-0.6475,-0.6419,-0.6438,-0.6425,-0.64,-0.6396,-0.6371,-0.6363,-0.6344,-0.6362,-0.6379,-0.6374,-0.6378,-0.6357,-0.643,-0.6438,-0.6445,-0.6467,-0.6477,-0.6362,-0.6362,-0.6362,-0.6361,0,-0.6586,-0.6589,-0.6608,-0.6584,-0.6578,-0.6593,-0.655,-0.655,-0.6521,-0.6495,-0.6506,-0.6481,-0.6469,-0.6471,-0.6443,-0.6484,-0.6471,-0.6439,-0.6396,-0.6461,-0.6481,-0.649,-0.6369,-0.6367,-0.6366,-0.6365,0,0,-0.6713,-0.6663,-0.6671,-0.6659,-0.6626,-0.6627,-0.6638,-0.6626,-0.6626,-0.661,-0.6618,-0.6615,-0.6584,-0.6575,-0.6545,-0.6557,-0.6613,-0.6523,-0.6522,-0.6541,-0.6656,-0.668,-0.6691,-0.659,-0.6591,-0.6592,-0.6658,0,-0.6784,-0.68,-0.676,-0.6785,-0.6787,-0.6733,-0.6742,-0.6723,-0.6699,-0.6697,-0.667,-0.6668,-0.6628,-0.6622,-0.6632,-0.6604,-0.6636,-0.6599,-0.6596,-0.6597,-0.6604,-0.6702,-0.6728,-0.6791,-0.6666,-0.6667,-0.6668,0,-0.687,-0.6857,-0.6883,-0.6847,-0.6846,-0.6856,-0.684,-0.6839,-0.6815,-0.6796,-0.6785,-0.6749,-0.6757,-0.6715,-0.6724,-0.67,-0.6696,-0.6682,-0.6684,-0.6682,-0.6637,-0.6703,-0.6811,-0.682,-0.668,-0.6679,-0.6678,0,-0.696,-0.6949,-0.6962,-0.6954,-0.6913,-0.692,-0.6903,-0.6878,-0.6872,-0.6859,-0.6854,-0.6842,-0.6836,-0.6827,-0.6788,-0.6761,-0.6802,-0.6757,-0.6786,-0.6787,-0.6798,-0.6798,-0.6906,-0.6795,-0.6795,-0.6795,-0.6795,0,-0.7043,-0.7061,-0.7002,-0.7011,-0.7028,-0.6981,-0.7,-0.6978,-0.6956,-0.6958,-0.6911,-0.6915,-0.6863,-0.6861,-0.683,-0.6842,-0.684,-0.6824,-0.6816,-0.6829,-0.6831,-0.6826,-0.6821,-0.6797,-0.6797,-0.6796,-0.6796,0,-0.7147,-0.7108,-0.7119,-0.7079,-0.7069,-0.7084,-0.7049,-0.7055,-0.7027,-0.7031,-0.7029,-0.6985,-0.698,-0.694,-0.6926,-0.6905,-0.6929,-0.6912,-0.6937,-0.6931,-0.6963,-0.696,-0.7072,-0.7084,-0.6966,-0.6967,-0.6968,0,-0.7203,-0.7216,-0.7176,-0.7174,-0.7159,-0.7157,-0.7151,-0.7104,-0.71,-0.7073,-0.7082,-0.7073,-0.7063,-0.7057,-0.7024,-0.7012,-0.6995,-0.7034,-0.6993,-0.7005,-0.6995,-0.6995,-0.6995,-0.7044,-0.7045,-0.7047,-0.7048,0,-0.7307,-0.7287,-0.728,-0.7265,-0.7259,-0.7246,-0.723,-0.7231,-0.7179,-0.7177,-0.717,-0.7162,-0.7147,-0.7138,-0.7121,-0.7103,-0.7067,-0.7061,-0.7067,-0.708,-0.7094,-0.7086,-0.6961,-0.7059,-0.7057,-0.7057,-0.7056,-0.7056,-0.7389,-0.7396,-0.7369,-0.7362,-0.7345,-0.733,-0.7333,-0.7305,-0.7299,-0.7283,-0.7255,-0.7253,-0.7227,-0.72,-0.7185,-0.7181,-0.716,-0.717,-0.7172,-0.7175,-0.7181,-0.7094,-0.7178,-0.7178,-0.7177,-0.7177,-0.7177,0,-0.749,-0.7469,-0.7463,-0.7441,-0.7436,-0.7401,-0.7381,-0.7378,-0.7376,-0.7355,-0.7346,-0.7338,-0.7329,-0.7294,-0.7281,-0.7285,-0.7268,-0.7283,-0.7282,-0.7279,-0.7201,-0.7197,-0.7297,-0.7297,-0.7297,-0.7297,-0.7297,-0.7297,-0.7542,-0.7553,-0.7529,-0.753,-0.7509,-0.7506,-0.7497,-0.7483,-0.7466,-0.7459,-0.7451,-0.7428,-0.7401,-0.7385,-0.7375,-0.7365,-0.7362,-0.7383,-0.7367,-0.7296,-0.7284,-0.7273,-0.7269,-0.7382,-0.7383,-0.7445,-0.7445,-0.7446]}]]